User: anonymous   Login
Location: Caltech
(34.1382°N, 118.1253°W)
Time: 16:44:49
(UTC-07:00)
Language:

AO-27 - Orbit

View from above orbital plane
View from above orbital plane
View from above satellite
View from above satellite

Ground track
Ground track

The orbit data is extracted from the following two-line orbital elements,

1 22825U 93061C   17289.51989534 +.00000021 +00000-0 +25808-4 0  9999
2 22825 098.8283 256.6846 0008139 344.8860 015.2077 14.30009817254477
Epoch (UTC): 16 October 2017 12:28:38
Eccentricity: 0.0008139
inclination: 98.8283°
perigee height: 786 km
apogee height: 797 km
right ascension of ascending node: 256.6846°
argument of perigee: 344.8860°
revolutions per day: 14.30009817
mean anomaly at epoch: 15.2077°
orbit number at epoch: 25447

The dashed part of the orbit path shows where the satellite is in the earth's shadow,  

DLR